| time (UTC) | temp F | wind direction | speed MPH | gust MPH | rain 1hr in | rain 24hr in | rain mn in | humidity % | barometer mb |
| 20260506192247 | 44 | 57 | 1.0 | 3.0 | 0.05 | 1.11 | 0.89 | 98 | 1007.4 |
| 20260506191742 | 44 | 32 | 1.0 | 2.0 | 0.04 | 1.10 | 0.88 | 98 | 1007.4 |
| 20260506191235 | 44 | 20 | 1.0 | 2.0 | 0.04 | 1.10 | 0.88 | 98 | 1007.4 |
| 20260506190730 | 44 | 82 | 1.0 | 2.0 | 0.04 | 1.23 | 0.88 | 98 | 1007.4 |
| 20260506190223 | 44 | 75 | 0.0 | 2.0 | 0.04 | 1.23 | 0.87 | 98 | 1007.6 |
| 20260506185717 | 44 | 311 | 0.0 | 2.0 | 0.04 | 1.23 | 0.87 | 98 | 1007.7 |
| 20260506184705 | 43 | 343 | 1.0 | 3.0 | 0.03 | 1.28 | 0.86 | 98 | 1007.9 |
| 20260506184200 | 43 | 3 | 1.0 | 3.0 | 0.02 | 1.27 | 0.85 | 98 | 1008.1 |
| 20260506183654 | 43 | 68 | 1.0 | 2.0 | 0.03 | 1.27 | 0.85 | 98 | 1008.0 |
| 20260506183147 | 43 | 32 | 1.0 | 2.0 | 0.04 | 1.27 | 0.85 | 98 | 1008.0 |
| 20260506182642 | 43 | 41 | 1.0 | 3.0 | 0.05 | 1.27 | 0.85 | 98 | 1008.2 |
| 20260506182135 | 43 | 19 | 1.0 | 4.0 | 0.05 | 1.26 | 0.84 | 98 | 1008.2 |
| 20260506181630 | 43 | 20 | 1.0 | 4.0 | 0.05 | 1.26 | 0.84 | 98 | 1008.3 |
| 20260506181127 | 43 | 66 | 2.0 | 5.0 | 0.06 | 1.26 | 0.84 | 98 | 1008.3 |
| 20260506180627 | 43 | 74 | 2.0 | 5.0 | 0.06 | 1.26 | 0.84 | 98 | 1008.4 |
| 20260506180128 | 43 | 30 | 1.0 | 3.0 | 0.06 | 1.25 | 0.83 | 98 | 1008.4 |
| 20260506175628 | 43 | 8 | 1.0 | 3.0 | 0.07 | 1.25 | 0.83 | 98 | 1008.3 |
| 20260506175127 | 43 | 357 | 1.0 | 2.0 | 0.07 | 1.25 | 0.83 | 98 | 1008.6 |
| 20260506174631 | 43 | 18 | 1.0 | 2.0 | 0.08 | 1.25 | 0.83 | 98 | 1008.4 |
| 20260506174132 | 43 | 87 | 1.0 | 3.0 | 0.09 | 1.25 | 0.83 | 98 | 1008.5 |
| 20260506173627 | 43 | 20 | 0.0 | 3.0 | 0.09 | 1.24 | 0.82 | 98 | 1008.5 |
| 20260506173127 | 43 | 20 | 1.0 | 4.0 | 0.09 | 1.23 | 0.81 | 98 | 1008.5 |
| 20260506172628 | 43 | 13 | 1.0 | 4.0 | 0.09 | 1.22 | 0.80 | 97 | 1008.5 |
| 20260506172127 | 43 | 80 | 0.0 | 3.0 | 0.09 | 1.21 | 0.79 | 98 | 1008.6 |
| 20260506171625 | 43 | 351 | 1.0 | 4.0 | 0.10 | 1.21 | 0.79 | 97 | 1008.6 |
| 20260506171126 | 43 | 28 | 2.0 | 6.0 | 0.10 | 1.20 | 0.78 | 97 | 1008.7 |
| 20260506170625 | 43 | 11 | 2.0 | 6.0 | 0.12 | 1.20 | 0.78 | 97 | 1008.6 |
| 20260506170126 | 43 | 50 | 2.0 | 6.0 | 0.12 | 1.19 | 0.77 | 97 | 1008.6 |
| 20260506165625 | 43 | 9 | 3.0 | 6.0 | 0.13 | 1.18 | 0.76 | 97 | 1008.7 |
| 20260506165126 | 43 | 39 | 3.0 | 5.0 | 0.14 | 1.18 | 0.76 | 97 | 1008.8 |
| 20260506164626 | 43 | 27 | 2.0 | 5.0 | 0.14 | 1.17 | 0.75 | 98 | 1008.7 |
| 20260506164125 | 43 | 18 | 2.0 | 5.0 | 0.14 | 1.16 | 0.74 | 97 | 1008.8 |
| 20260506163629 | 43 | 17 | 2.0 | 6.0 | 0.14 | 1.15 | 0.73 | 98 | 1008.9 |
| 20260506163127 | 43 | 31 | 2.0 | 6.0 | 0.14 | 1.14 | 0.72 | 97 | 1009.0 |
| 20260506162625 | 43 | 4 | 2.0 | 4.0 | 0.15 | 1.13 | 0.71 | 97 | 1009.0 |
| 20260506162122 | 43 | 346 | 2.0 | 5.0 | 0.15 | 1.12 | 0.70 | 97 | 1008.9 |
| 20260506161619 | 43 | 24 | 2.0 | 5.0 | 0.14 | 1.11 | 0.69 | 97 | 1008.8 |
| 20260506161120 | 43 | 51 | 1.0 | 5.0 | 0.15 | 1.10 | 0.68 | 98 | 1009.0 |
| 20260506160120 | 43 | 30 | 2.0 | 4.0 | 0.14 | 1.07 | 0.65 | 97 | 1009.2 |
| 20260506155117 | 43 | 352 | 2.0 | 6.0 | 0.12 | 1.04 | 0.62 | 97 | 1009.3 |
| 20260506154118 | 43 | 33 | 3.0 | 8.0 | 0.11 | 1.02 | 0.60 | 97 | 1009.2 |
| 20260506153118 | 43 | 20 | 2.0 | 7.0 | 0.10 | 1.00 | 0.58 | 98 | 1008.9 |
| 20260506152617 | 43 | 34 | 2.0 | 5.0 | 0.09 | 0.98 | 0.56 | 98 | 1009.0 |
| 20260506151614 | 43 | 19 | 2.0 | 6.0 | 0.09 | 0.97 | 0.55 | 98 | 1008.8 |
| 20260506150614 | 43 | 61 | 2.0 | 6.0 | 0.07 | 0.94 | 0.52 | 97 | 1009.0 |
| 20260506150113 | 43 | 349 | 2.0 | 6.0 | 0.06 | 0.93 | 0.52 | 97 | 1009.0 |
| 20260506145612 | 43 | 13 | 2.0 | 5.0 | 0.07 | 0.93 | 0.51 | 97 | 1008.9 |
| 20260506145112 | 43 | 48 | 2.0 | 5.0 | 0.06 | 0.92 | 0.50 | 97 | 1008.9 |
| 20260506144106 | 43 | 33 | 2.0 | 7.0 | 0.05 | 0.91 | 0.49 | 97 | 1009.1 |
| 20260506143606 | 43 | 63 | 3.0 | 6.0 | 0.04 | 0.90 | 0.49 | 97 | 1009.1 |
| 20260506142606 | 43 | 336 | 2.0 | 6.0 | 0.03 | 0.89 | 0.47 | 97 | 1009.3 |
| 20260506142106 | 43 | 356 | 2.0 | 7.0 | 0.03 | 0.89 | 0.47 | 97 | 1009.2 |
| 20260506141104 | 43 | 6 | 2.0 | 5.0 | 0.02 | 0.87 | 0.45 | 97 | 1009.2 |
| 20260506140603 | 43 | 357 | 2.0 | 6.0 | 0.02 | 0.87 | 0.45 | 97 | 1009.0 |
| 20260506135604 | 44 | 30 | 2.0 | 6.0 | 0.02 | 0.86 | 0.44 | 96 | 1008.9 |
| 20260506134105 | 44 | 44 | 2.0 | 5.0 | 0.03 | 0.86 | 0.44 | 96 | 1009.2 |
| 20260506133600 | 44 | 11 | 2.0 | 5.0 | 0.03 | 0.86 | 0.44 | 96 | 1009.3 |
| 20260506133100 | 44 | 10 | 2.0 | 5.0 | 0.04 | 0.86 | 0.44 | 96 | 1009.2 |
| 20260506132559 | 44 | 30 | 2.0 | 5.0 | 0.05 | 0.86 | 0.44 | 95 | 1009.5 |
| 20260506132100 | 44 | 1 | 1.0 | 4.0 | 0.05 | 0.86 | 0.44 | 95 | 1009.6 |
| 20260506131100 | 44 | 49 | 1.0 | 4.0 | 0.05 | 0.85 | 0.43 | 95 | 1009.6 |
| 20260506130559 | 44 | 64 | 1.0 | 4.0 | 0.06 | 0.85 | 0.43 | 95 | 1009.5 |
| 20260506125555 | 44 | 46 | 1.0 | 3.0 | 0.06 | 0.84 | 0.42 | 95 | 1009.8 |
| 20260506125055 | 44 | 77 | 1.0 | 5.0 | 0.07 | 0.84 | 0.42 | 94 | 1009.6 |
| 20260506124556 | 44 | 71 | 3.0 | 8.0 | 0.07 | 0.84 | 0.42 | 93 | 1009.6 |
| 20260506124055 | 44 | 62 | 2.0 | 8.0 | 0.07 | 0.83 | 0.41 | 94 | 1009.6 |
| 20260506123055 | 45 | 76 | 1.0 | 6.0 | 0.08 | 0.82 | 0.40 | 95 | 1009.7 |
| 20260506122555 | 45 | 24 | 1.0 | 4.0 | 0.07 | 0.81 | 0.40 | 96 | 1010.1 |
| 20260506122056 | 45 | 352 | 2.0 | 5.0 | 0.07 | 0.81 | 0.39 | 95 | 1010.3 |
| 20260506121051 | 45 | 51 | 1.0 | 3.0 | 0.07 | 0.80 | 0.38 | 95 | 1010.1 |
| 20260506120551 | 45 | 50 | 0.0 | 2.0 | 0.06 | 0.79 | 0.37 | 96 | 1010.3 |
| 20260506120052 | 45 | 47 | 1.0 | 3.0 | 0.06 | 0.79 | 0.37 | 96 | 1010.4 |
| 20260506115551 | 45 | 121 | 1.0 | 3.0 | 0.05 | 0.78 | 0.36 | 97 | 1010.2 |
| 20260506115052 | 45 | 171 | 1.0 | 2.0 | 0.04 | 0.77 | 0.35 | 96 | 1010.5 |
| 20260506114551 | 45 | 219 | 0.0 | 2.0 | 0.05 | 0.77 | 0.35 | 96 | 1010.4 |
| 20260506114052 | 46 | 247 | 0.0 | 1.0 | 0.04 | 0.76 | 0.34 | 97 | 1010.4 |
| 20260506113551 | 46 | 248 | 0.0 | 3.0 | 0.03 | 0.75 | 0.33 | 97 | 1010.3 |
| 20260506113052 | 45 | 248 | 1.0 | 3.0 | 0.02 | 0.74 | 0.32 | 96 | 1010.2 |
| 20260506112547 | 46 | 224 | 2.0 | 3.0 | 0.02 | 0.74 | 0.32 | 97 | 1009.8 |
| 20260506111548 | 46 | 161 | 1.0 | 2.0 | 0.01 | 0.73 | 0.31 | 96 | 1009.6 |
| 20260506111047 | 46 | 141 | 1.0 | 2.0 | 0.01 | 0.73 | 0.31 | 96 | 1009.6 |
| 20260506110548 | 46 | 142 | 0.0 | 1.0 | 0.01 | 0.73 | 0.31 | 96 | 1009.6 |
| 20260506110047 | 46 | 214 | 0.0 | 1.0 | 0.02 | 0.73 | 0.31 | 96 | 1009.6 |
| 20260506105548 | 46 | 232 | 0.0 | 1.0 | 0.03 | 0.73 | 0.31 | 96 | 1009.8 |
| 20260506105048 | 46 | 232 | 0.0 | 1.0 | 0.03 | 0.73 | 0.31 | 96 | 1009.7 |
| 20260506104547 | 46 | 126 | 0.0 | 3.0 | 0.02 | 0.72 | 0.30 | 95 | 1009.5 |
| 20260506104044 | 46 | 126 | 1.0 | 3.0 | 0.03 | 0.72 | 0.30 | 95 | 1009.3 |
| 20260506103543 | 46 | 130 | 1.0 | 3.0 | 0.03 | 0.72 | 0.30 | 95 | 1009.5 |
| 20260506102543 | 46 | 141 | 1.0 | 3.0 | 0.03 | 0.72 | 0.30 | 96 | 1009.6 |
| 20260506102044 | 46 | 81 | 1.0 | 2.0 | 0.04 | 0.72 | 0.30 | 96 | 1009.7 |
| 20260506100543 | 46 | 8 | 2.0 | 7.0 | 0.04 | 0.72 | 0.30 | 95 | 1009.5 |
| 20260506100044 | 47 | 98 | 1.0 | 6.0 | 0.03 | 0.71 | 0.29 | 95 | 1008.7 |
| 20260506095539 | 47 | 41 | 1.0 | 6.0 | 0.02 | 0.70 | 0.28 | 96 | 1010.2 |
| 20260506095040 | 47 | 89 | 1.0 | 6.0 | 0.02 | 0.70 | 0.28 | 96 | 1009.8 |
| 20260506094539 | 47 | 86 | 1.0 | 5.0 | 0.02 | 0.70 | 0.28 | 96 | 1009.5 |
| 20260506094039 | 47 | 91 | 2.0 | 6.0 | 0.01 | 0.69 | 0.27 | 96 | 1009.7 |
| 20260506093540 | 47 | 70 | 2.0 | 6.0 | 0.02 | 0.69 | 0.27 | 96 | 1009.5 |
| 20260506093039 | 48 | 49 | 3.0 | 7.0 | 0.02 | 0.69 | 0.27 | 97 | 1009.9 |
| 20260506092539 | 48 | 83 | 2.0 | 7.0 | 0.02 | 0.69 | 0.27 | 97 | 1009.7 |
| 20260506092040 | 49 | 88 | 1.0 | 3.0 | 0.01 | 0.68 | 0.26 | 98 | 1010.1 |
| 20260506091539 | 49 | 346 | 1.0 | 3.0 | 0.01 | 0.68 | 0.26 | 98 | 1010.5 |
| 20260506091035 | 49 | 82 | 0.0 | 2.0 | 0.02 | 0.68 | 0.26 | 98 | 1010.0 |
| 20260506090035 | 49 | 16 | 1.0 | 3.0 | 0.05 | 0.68 | 0.26 | 98 | 1010.0 |
| 20260506085536 | 49 | 128 | 0.0 | 1.0 | 0.06 | 0.68 | 0.26 | 98 | 1009.9 |
| 20260506085035 | 49 | 128 | 0.0 | 1.0 | 0.06 | 0.68 | 0.26 | 98 | 1010.1 |
| 20260506084536 | 49 | 128 | 0.0 | 1.0 | 0.06 | 0.68 | 0.26 | 98 | 1009.8 |
| 20260506084035 | 49 | 128 | 0.0 | 2.0 | 0.06 | 0.68 | 0.26 | 97 | 1009.9 |
| 20260506083536 | 49 | 128 | 1.0 | 2.0 | 0.06 | 0.67 | 0.25 | 97 | 1010.0 |
| 20260506083035 | 49 | 198 | 1.0 | 2.0 | 0.06 | 0.67 | 0.25 | 97 | 1010.3 |
| 20260506082531 | 49 | 200 | 0.0 | 2.0 | 0.06 | 0.67 | 0.25 | 98 | 1010.1 |
| 20260506082031 | 49 | 246 | 1.0 | 2.0 | 0.06 | 0.67 | 0.25 | 97 | 1010.0 |
| 20260506073031 | 50 | 156 | 0.0 | 0.0 | 0.03 | 0.61 | 0.19 | 98 | 1009.8 |
| 20260506072528 | 50 | 156 | 0.0 | 0.0 | 0.03 | 0.61 | 0.19 | 98 | 1010.0 |
| 20260506071527 | 50 | 156 | 1.0 | 4.0 | 0.03 | 0.60 | 0.18 | 98 | 1009.2 |
| 20260506071028 | 51 | 235 | 1.0 | 4.0 | 0.03 | 0.60 | 0.18 | 98 | 1009.8 |
| 20260506070528 | 51 | 221 | 1.0 | 1.0 | 0.03 | 0.60 | 0.18 | 98 | 1009.5 |
| 20260506062019 | 51 | 217 | 0.0 | 1.0 | 0.03 | 0.57 | 0.15 | 98 | 1009.9 |
| 20260506061520 | 51 | 226 | 0.0 | 1.0 | 0.04 | 0.57 | 0.15 | 98 | 1010.0 |
| 20260506060518 | 51 | 231 | 0.0 | 0.0 | 0.05 | 0.57 | 0.15 | 98 | 1009.9 |
| 20260506051001 | 52 | 34 | 0.0 | 1.0 | 0.11 | 0.53 | 0.11 | 97 | 1009.9 |
| 20260506050501 | 52 | 36 | 0.0 | 1.0 | 0.10 | 0.52 | 0.10 | 97 | 1009.7 |
| 20260506044959 | 52 | 36 | 1.0 | 3.0 | 0.08 | 0.48 | 0.07 | 97 | 1009.6 |
| 20260506044458 | 52 | 24 | 0.0 | 3.0 | 0.06 | 0.46 | 0.05 | 97 | 1009.3 |
| 20260506043959 | 52 | 141 | 0.0 | 4.0 | 0.05 | 0.45 | 0.03 | 96 | 1009.7 |
| 20260506042959 | 52 | 155 | 3.0 | 4.0 | 0.05 | 0.44 | 0.03 | 95 | 1009.1 |
| 20260506041953 | 53 | 210 | 2.0 | 4.0 | 0.07 | 0.44 | 0.02 | 95 | 1009.8 |
| 20260506041453 | 53 | 205 | 2.0 | 6.0 | 0.08 | 0.43 | 0.01 | 95 | 1009.6 |
| 20260506035933 | 53 | 200 | 3.0 | 6.0 | 0.09 | 0.41 | 0.42 | 94 | 1009.2 |
| 20260506035429 | 54 | 218 | 3.0 | 6.0 | 0.09 | 0.41 | 0.41 | 94 | 1009.0 |
| 20260506034924 | 54 | 197 | 3.0 | 8.0 | 0.08 | 0.40 | 0.40 | 94 | 1008.9 |
| 20260506034417 | 54 | 196 | 2.0 | 8.0 | 0.08 | 0.40 | 0.40 | 94 | 1009.1 |
| 20260506033912 | 55 | 203 | 1.0 | 4.0 | 0.08 | 0.40 | 0.40 | 94 | 1009.1 |
| 20260506033406 | 55 | 219 | 0.0 | 1.0 | 0.08 | 0.40 | 0.40 | 94 | 1009.2 |
| 20260506032859 | 55 | 219 | 0.0 | 1.0 | 0.07 | 0.39 | 0.39 | 94 | 1009.3 |
| 20260506032354 | 55 | 165 | 1.0 | 4.0 | 0.07 | 0.38 | 0.38 | 93 | 1009.1 |
| 20260506031847 | 56 | 251 | 2.0 | 5.0 | 0.06 | 0.37 | 0.37 | 93 | 1009.0 |
| 20260506031342 | 56 | 155 | 4.0 | 7.0 | 0.04 | 0.35 | 0.35 | 93 | 1009.0 |
| 20260506030835 | 56 | 161 | 3.0 | 7.0 | 0.03 | 0.34 | 0.34 | 95 | 1008.7 |
| 20260506030330 | 56 | 165 | 1.0 | 4.0 | 0.03 | 0.32 | 0.32 | 96 | 1008.7 |
| 20260506025823 | 56 | 243 | 2.0 | 4.0 | 0.05 | 0.32 | 0.32 | 96 | 1008.4 |
| 20260506025317 | 56 | 160 | 3.0 | 5.0 | 0.06 | 0.32 | 0.32 | 95 | 1008.2 |
| 20260506024812 | 56 | 147 | 3.0 | 5.0 | 0.06 | 0.32 | 0.32 | 95 | 1008.0 |
| 20260506024306 | 56 | 188 | 3.0 | 3.0 | 0.06 | 0.32 | 0.32 | 95 | 1008.2 |
| 20260506023759 | 56 | 121 | 2.0 | 3.0 | 0.06 | 0.32 | 0.32 | 94 | 1008.1 |
| 20260506023254 | 57 | 154 | 2.0 | 3.0 | 0.06 | 0.32 | 0.32 | 93 | 1008.1 |
| 20260506022747 | 57 | 148 | 1.0 | 3.0 | 0.06 | 0.32 | 0.32 | 91 | 1008.0 |
| 20260506022242 | 58 | 118 | 0.0 | 3.0 | 0.05 | 0.31 | 0.31 | 89 | 1008.0 |
| 20260506021736 | 58 | 310 | 1.0 | 6.0 | 0.05 | 0.31 | 0.31 | 89 | 1007.9 |
| 20260506021229 | 58 | 32 | 1.0 | 6.0 | 0.05 | 0.31 | 0.31 | 88 | 1008.0 |
| 20260506020723 | 59 | 294 | 1.0 | 7.0 | 0.04 | 0.30 | 0.31 | 88 | 1008.2 |
| 20260506020217 | 59 | 4 | 2.0 | 7.0 | 0.02 | 0.28 | 0.28 | 89 | 1008.2 |
| 20260506015712 | 59 | 66 | 2.0 | 6.0 | 0.01 | 0.27 | 0.27 | 91 | 1007.9 |
| 20260506015206 | 60 | 351 | 1.0 | 6.0 | 0.00 | 0.26 | 0.26 | 90 | 1007.7 |
| 20260506014659 | 59 | 264 | 0.0 | 6.0 | 0.00 | 0.26 | 0.26 | 91 | 1007.5 |
| 20260506014153 | 59 | 304 | 0.0 | 1.0 | 0.00 | 0.26 | 0.26 | 90 | 1007.3 |
| 20260506013647 | 60 | 283 | 0.0 | 3.0 | 0.00 | 0.26 | 0.26 | 88 | 1007.1 |
| 20260506013141 | 61 | 254 | 0.0 | 3.0 | 0.00 | 0.26 | 0.26 | 85 | 1006.9 |
| 20260506012636 | 62 | 231 | 1.0 | 3.0 | 0.00 | 0.26 | 0.26 | 83 | 1006.7 |
| 20260506012130 | 62 | 248 | 1.0 | 3.0 | 0.00 | 0.26 | 0.26 | 82 | 1006.4 |
| 20260506011623 | 62 | 236 | 1.0 | 5.0 | 0.00 | 0.26 | 0.26 | 81 | 1006.4 |
| 20260506011118 | 62 | 235 | 1.0 | 5.0 | 0.00 | 0.26 | 0.26 | 82 | 1006.4 |
| 20260506010106 | 63 | 250 | 2.0 | 7.0 | 0.00 | 0.26 | 0.26 | 80 | 1006.2 |
| 20260506005053 | 62 | 263 | 2.0 | 5.0 | 0.00 | 0.26 | 0.26 | 80 | 1006.2 |
| 20260506004548 | 62 | 217 | 2.0 | 4.0 | 0.00 | 0.26 | 0.26 | 81 | 1006.2 |
| 20260506004041 | 62 | 219 | 1.0 | 3.0 | 0.00 | 0.26 | 0.26 | 80 | 1006.0 |
| 20260506003536 | 62 | 210 | 2.0 | 6.0 | 0.00 | 0.26 | 0.26 | 81 | 1005.8 |
| 20260506002524 | 63 | 217 | 3.0 | 7.0 | 0.00 | 0.26 | 0.26 | 80 | 1005.6 |
| 20260506002018 | 62 | 217 | 3.0 | 7.0 | 0.00 | 0.26 | 0.26 | 80 | 1005.6 |
| 20260506001511 | 62 | 207 | 2.0 | 4.0 | 0.00 | 0.26 | 0.26 | 81 | 1005.6 |
| 20260506001006 | 62 | 223 | 2.0 | 6.0 | 0.00 | 0.26 | 0.26 | 81 | 1005.6 |
| 20260505235448 | 62 | 233 | 3.0 | 9.0 | 0.00 | 0.26 | 0.26 | 82 | 1005.5 |
| 20260505234941 | 62 | 223 | 4.0 | 8.0 | 0.00 | 0.26 | 0.26 | 83 | 1005.6 |
| 20260505234436 | 62 | 209 | 4.0 | 8.0 | 0.00 | 0.26 | 0.26 | 82 | 1005.3 |
| 20260505233929 | 62 | 244 | 3.0 | 6.0 | 0.00 | 0.26 | 0.26 | 83 | 1005.5 |
| 20260505233423 | 62 | 211 | 3.0 | 5.0 | 0.00 | 0.26 | 0.26 | 84 | 1005.5 |
| 20260505232412 | 62 | 215 | 2.0 | 6.0 | 0.00 | 0.26 | 0.26 | 84 | 1005.5 |
| 20260505231905 | 63 | 242 | 3.0 | 7.0 | 0.00 | 0.26 | 0.26 | 84 | 1005.2 |
| 20260505231359 | 63 | 205 | 3.0 | 7.0 | 0.00 | 0.26 | 0.26 | 83 | 1005.0 |
| 20260505230853 | 63 | 211 | 3.0 | 7.0 | 0.00 | 0.26 | 0.26 | 84 | 1004.9 |
| 20260505230347 | 63 | 256 | 3.0 | 8.0 | 0.00 | 0.26 | 0.26 | 84 | 1005.0 |
| 20260505225842 | 63 | 179 | 2.0 | 8.0 | 0.00 | 0.26 | 0.26 | 83 | 1004.9 |
| 20260505225335 | 63 | 265 | 2.0 | 6.0 | 0.00 | 0.26 | 0.26 | 84 | 1004.9 |
| 20260505224829 | 63 | 253 | 2.0 | 5.0 | 0.00 | 0.26 | 0.26 | 85 | 1004.9 |
| 20260505224324 | 63 | 240 | 2.0 | 5.0 | 0.00 | 0.26 | 0.26 | 85 | 1005.0 |
| 20260505223818 | 63 | 251 | 1.0 | 4.0 | 0.00 | 0.26 | 0.26 | 87 | 1005.0 |
| 20260505223312 | 62 | 244 | 1.0 | 3.0 | 0.00 | 0.26 | 0.26 | 87 | 1004.9 |
| 20260505222805 | 62 | 217 | 0.0 | 2.0 | 0.00 | 0.26 | 0.26 | 88 | 1005.2 |
| 20260505222300 | 63 | 312 | 0.0 | 2.0 | 0.00 | 0.26 | 0.26 | 88 | 1005.1 |
| 20260505221248 | 64 | 272 | 1.0 | 6.0 | 0.00 | 0.26 | 0.26 | 83 | 1004.8 |
| 20260505220741 | 64 | 278 | 1.0 | 4.0 | 0.00 | 0.26 | 0.26 | 81 | 1004.8 |
| 20260505220236 | 64 | 266 | 1.0 | 4.0 | 0.00 | 0.26 | 0.26 | 82 | 1004.8 |
| 20260505215729 | 63 | 245 | 1.0 | 2.0 | 0.00 | 0.26 | 0.26 | 84 | 1004.8 |
| 20260505215224 | 63 | 264 | 1.0 | 2.0 | 0.00 | 0.26 | 0.26 | 84 | 1004.8 |
| 20260505214717 | 63 | 314 | 1.0 | 7.0 | 0.00 | 0.26 | 0.26 | 85 | 1004.6 |
| 20260505214212 | 62 | 288 | 3.0 | 7.0 | 0.00 | 0.26 | 0.26 | 85 | 1004.6 |
| 20260505213705 | 62 | 242 | 4.0 | 9.0 | 0.00 | 0.26 | 0.26 | 84 | 1004.7 |
| 20260505212653 | 62 | 215 | 4.0 | 9.0 | 0.01 | 0.26 | 0.26 | 86 | 1004.7 |
| 20260505212148 | 62 | 206 | 4.0 | 8.0 | 0.01 | 0.26 | 0.26 | 87 | 1004.8 |
| 20260505211136 | 62 | 203 | 3.0 | 7.0 | 0.06 | 0.26 | 0.26 | 87 | 1004.3 |
| 20260505210629 | 62 | 221 | 2.0 | 7.0 | 0.06 | 0.26 | 0.26 | 89 | 1004.3 |
| 20260505205618 | 62 | 319 | 3.0 | 9.0 | 0.06 | 0.26 | 0.26 | 87 | 1004.0 |
| 20260505205111 | 62 | 196 | 3.0 | 9.0 | 0.06 | 0.26 | 0.26 | 89 | 1004.0 |
| 20260505204606 | 62 | 257 | 4.0 | 9.0 | 0.06 | 0.26 | 0.26 | 89 | 1004.1 |
| 20260505204059 | 62 | 227 | 5.0 | 9.0 | 0.06 | 0.26 | 0.26 | 88 | 1004.4 |
| 20260505203553 | 62 | 238 | 4.0 | 9.0 | 0.06 | 0.26 | 0.26 | 89 | 1004.5 |
| 20260505203048 | 61 | 223 | 2.0 | 8.0 | 0.06 | 0.26 | 0.26 | 93 | 1004.5 |
| 20260505202542 | 61 | 209 | 1.0 | 5.0 | 0.05 | 0.25 | 0.25 | 94 | 1004.8 |
| 20260505202036 | 61 | 320 | 1.0 | 3.0 | 0.04 | 0.24 | 0.24 | 94 | 1004.5 |
| 20260505201529 | 61 | 354 | 1.0 | 4.0 | 0.00 | 0.20 | 0.20 | 95 | 1004.5 |
| 20260505200517 | 62 | 43 | 2.0 | 6.0 | 0.14 | 0.20 | 0.20 | 94 | 1003.7 |
| 20260505195506 | 63 | 32 | 1.0 | 4.0 | 0.14 | 0.20 | 0.20 | 92 | 1002.9 |
| 20260505194959 | 62 | 228 | 2.0 | 5.0 | 0.14 | 0.20 | 0.20 | 90 | 1002.9 |
| 20260505194454 | 62 | 166 | 2.0 | 5.0 | 0.20 | 0.20 | 0.20 | 91 | 1002.9 |
| 20260505193948 | 62 | 149 | 2.0 | 6.0 | 0.20 | 0.20 | 0.20 | 92 | 1003.1 |
| 20260505192935 | 62 | 213 | 3.0 | 7.0 | 0.20 | 0.20 | 0.20 | 91 | 1003.3 |